CAPE
2590 2587 2560 2618 2631 2483 2660 2873 2833 2787 3168 2855 2758 2924 3114 3169 3182 2971 2975 3040 3101 3059 3271 3470 3464 3358 3245 3436 3792 3930 3824 3721 3734 3737 3777 3606 3296 3010 2633 2894 3066 3107
2682 2649 2788 2680 2998 3045 3004 2854 2938 3036 3330 3446 3168 3318 3632 3629 3606 3142 3027 2958 3089 3059 3466 3386 3625 3620 3488 3325 3787 3863 4064 3855 3689 3325 3670 3814 3553 3285 2876 2947 2711 3108
2636 2713 2717 2709 2523 2634 2236 2490 2761 2949 2853 2883 3066 3496 3506 3589 3542 3528 3121 3112 2992 2880 3605 3654 3516 3654 3588 3507 3812 3791 3589 4166 3684 3402 3775 3775 3556 3574 3421 2881 2748 2818
2761 2663 2489 2424 2369 2559 2630 2719 2719 2791 2657 3004 2894 2754 3000 2873 3415 3624 3731 3638 3536 3584 3481 3445 3442 3388 3550 3584 3937 3748 3833 4210 3610 3882 3779 3812 3694 3427 3184 3248 2996 2888
2515 2627 2555 2537 2540 2747 2925 2747 2377 2552 2628 2682 2674 2943 3234 3378 3661 3276 3539 3667 3931 3733 3738 3693 3694 3554 3747 3801 4041 3998 4004 3809 3921 4157 3949 3918 4128 3882 3346 3266 3347 3128
2578 2687 2832 2686 2970 2961 2603 2634 2701 2623 2793 2807 2890 2801 2812 3274 3260 3167 3234 3230 3264 3236 3045 3184 3562 3592 3544 3664 4030 3998 3910 3687 3738 4165 4027 3966 3906 4028 3563 3526 3450 3377
2287 2570 2578 2591 2592 2677 2675 2815 2974 3026 2772 2703 3089 2939 2874 2916 3095 3214 3352 3275 3109 3236 3030 3246 3755 3624 3657 3868 4112 4121 4163 4161 4120 4496 4288 3991 4113 4027 3856 3890 3933 3709
2037 2200 2519 2595 2410 2611 2671 2874 2929 3136 3117 3154 2981 3096 3034 2782 3071 2949 3229 3303 3184 3393 3547 3551 3927 4209 3690 3589 3799 3883 3894 3720 4029 4375 4427 4408 4325 4380 4294 4074 3829 3868
2022 2163 2352 2459 2244 2310 2124 2064 2444 2745 3170 3136 2871 2902 3146 2977 3099 2939 3466 3594 3389 3546 3885 3814 4175 4009 3851 3916 3927 4036 4012 3633 3465 3898 4147 4207 4273 4436 4230 4109 3879 3841
2044 1958 1781 1873 1897 2060 1940 1903 1782 2095 2838 2842 2843 2824 3056 3290 3177 3188 3623 3806 3685 3853 3955 3929 4046 3946 3911 3951 4191 4195 4140 4300 4174 4137 3964 3953 4017 4059 4052 4105 3893 3864
1868 1739 1745 1742 1616 1608 1732 1696 1738 1755 2180 2266 2207 2391 2701 3055 3502 3580 3747 3876 3490 3694 3943 4024 3949 3957 4056 3790 3877 3970 4130 3952 3902 4196 4150 4178 4048 4145 4147 4136 4102 3934
2254 1970 1844 1793 1720 1614 1630 1610 1647 1730 1812 2044 2000 2141 2511 2504 2858 3130 3207 3671 3603 3518 3619 3945 4046 4070 4099 4049 3707 3881 4038 3871 3904 4138 3814 3943 3881 3872 4057 3973 3792 3948
2730 2602 2393 1916 2110 1962 1846 1879 1822 1711 1688 1670 1887 1932 2002 1919 2107 2511 3028 2936 3274 3162 2998 3277 3713 3632 3985 4099 3886 3818 3943 4049 3512 3657 3864 3851 3788 3574 3477 3574 3701 3747
2972 2931 2850 2465 2468 2585 2553 2290 2077 2023 2105 2016 2057 2043 1873 1728 1732 1784 2116 2344 2477 2554 2922 2936 3315 3438 3657 3887 3740 3544 3512 3749 3819 3611 3392 3507 3570 3719 3449 3179 3342 3482
2519 2665 2962 2926 2558 2657 2574 2497 2409 2406 2410 2386 2299 2101 1838 1833 1903 1827 1926 2114 2189 2493 2597 2588 2457 2761 2937 3219 3483 3789 3557 3252 3458 3644 3584 3528 3557 3146 3086 3320 3279 3032
2390 2418 2340 2451 2532 2545 2660 2564 2411 2444 2244 2219 2122 2050 1942 1906 1878 1807 1748 1798 1948 2204 2356 2203 2362 2446 2676 2378 2246 2670 3096 3052 3087 3459 3454 3360 3484 3545 3131 2918 2917 2844
2286 2328 2194 2068 2378 2663 2874 2665 2682 2593 2456 2301 2084 1883 1988 2278 1894 1585 1504 1368 1320 1524 1772 1772 1905 2068 2089 1631 1556 1491 1980 2586 3133 3282 3481 3532 3310 3446 3355 2927 2711 2866
1652 1563 1658 1723 1812 1875 1911 2194 2342 2373 2266 2137 1770 1700 1887 1520 1800 2049 2107 1621 1398 1240 1155 1321 1498 1048 940 1021 1125 1247 1287 2156 2386 2665 2816 2937 2951 2870 2938 2908 2950 2876
1262 1312 1367 1089 1268 1669 1825 1461 1441 1519 1576 1529 1803 1768 1561 1849 1891 1655 1998 1728 1953 1842 1590 1703 1724 1007 949 699 737 825 938 1141 1894 2250 2481 2605 2748 2818 2879 3010 3091 3092
981 1044 919 922 982 1190 1388 1481 1485 1530 1538 1500 1598 1694 1461 1459 1527 1819 1991 2119 2283 2244 2382 1120 1021 1307 1481 1421 1235 1115 1035 979 1586 1840 2099 2258 2508 2656 2576 2662 2825 2815
729 826 768 812 872 903 1096 1208 1258 1222 1143 1145 1429 1514 1520 1510 1534 1596 1754 1749 1746 1707 1507 1230 963 1208 1386 1509 1459 1346 1219 1220 1531 1354 1473 1810 1995 2142 2378 2523 2661 2429
827 850 845 786 877 831 836 923 910 970 1022 1103 1057 795 890 1140 1357 1484 1537 1599 1525 1444 1450 1302 1033 864 1005 1243 1500 1508 1560 1674 1869 1705 1626 1696 1779 1806 1787 1992 1992 2086
765 826 840 755 741 761 780 797 728 781 715 826 883 1003 860 794 1093 1258 1232 1198 1221 1241 1201 1113 974 872 818 870 1084 1330 1466 1832 1785 1880 1934 1908 1743 1631 1722 1524 1441 1530
633 687 706 664 656 518 538 552 559 556 544 681 727 812 858 868 896 994 1015 1006 1003 991 939 969 998 1003 989 993 1014 1047 1169 1385 1680 1918 1986 2173 1936 1870 2021 2145 1983 1402
240 386 177 250 526 477 479 507 476 462 482 469 530 577 661 697 722 701 710 802 848 897 934 952 976 976 981 995 1007 981 993 1085 1283 1638 1938 1904 1754 2052 2025 2004 2004 1695
8 343 366 103 114 120 249 268 270 163 236 238 351 430 418 404 395 439 482 573 663 676 702 813 835 790 751 851 859 859 835 891 970 1016 1049 1072 1146 1169 1338 1756 1666 1784
Wind_Speed
5 5 5 4 5 6 6 6 7 6 7 7 8 7 7 7 6 6 6 6 6 7 8 8 9 9 9 9 9 11 11 11 11 9 8 9 9 10 9 9 9 9
5 5 6 6 7 6 6 5 4 4 4 5 6 7 7 7 6 6 6 6 6 6 7 7 6 7 7 7 7 8 9 9 8 9 8 8 9 9 9 10 10 11
6 5 5 5 6 5 4 4 4 4 4 4 5 6 7 7 6 6 5 5 6 6 6 6 6 6 6 6 7 7 7 8 7 7 8 8 8 9 9 9 9 9
6 6 6 6 6 5 6 6 6 5 5 5 4 5 6 7 7 6 6 5 6 6 6 6 6 6 6 6 7 7 7 7 7 8 7 7 7 8 8 8 9 9
6 6 6 7 7 7 7 8 7 6 5 5 6 6 7 6 6 5 6 5 5 5 5 5 6 6 7 7 7 7 8 7 7 7 7 7 7 8 8 9 8 8
7 8 7 7 7 7 6 6 7 7 6 6 6 7 6 6 5 5 5 5 5 5 5 6 6 6 6 6 7 7 7 7 8 8 7 7 8 9 9 9 8 7
8 8 7 8 7 7 6 6 7 8 8 9 10 8 8 7 6 5 6 5 6 6 6 6 6 7 7 7 6 6 6 6 7 7 6 6 7 7 7 8 8 8
8 9 10 10 8 8 6 7 8 9 9 11 10 10 9 8 7 7 7 6 6 6 6 6 6 6 6 6 6 6 5 6 6 5 5 5 6 6 6 7 8 9
10 11 11 10 9 9 8 8 9 9 11 11 11 12 11 10 9 8 9 8 8 7 7 6 6 6 6 6 6 6 5 5 6 6 6 5 5 5 6 7 7 7
12 12 11 11 11 12 10 10 11 12 13 12 12 12 12 10 10 10 10 10 9 9 8 7 7 7 7 7 6 6 6 6 7 7 7 7 6 6 7 8 7 7
14 13 13 12 12 14 13 13 13 14 15 13 13 12 11 11 11 10 11 11 10 9 9 9 8 8 8 8 8 8 8 8 8 8 9 9 9 9 9 8 8 7
16 15 14 13 13 14 14 15 16 15 15 14 13 13 12 12 12 12 13 12 11 11 10 10 10 9 9 8 9 10 10 9 9 9 9 10 10 10 10 10 9 9
20 18 17 15 15 15 16 17 16 16 15 15 15 14 14 14 14 14 16 14 14 13 12 12 11 11 11 11 11 11 11 11 10 10 10 11 11 11 11 11 11 11
21 21 19 19 19 19 18 17 17 17 17 18 18 17 17 17 16 17 17 16 16 16 15 15 14 14 14 13 12 12 12 11 11 10 10 11 11 11 11 12 12 11
20 22 24 24 22 22 20 19 18 19 19 19 19 19 19 19 19 19 19 19 19 18 17 17 17 17 17 16 15 14 13 12 11 11 11 11 10 11 12 12 12 12
23 25 26 24 24 24 23 22 21 20 20 20 20 19 21 21 21 21 21 21 20 20 19 19 19 20 19 16 16 16 16 15 14 13 12 12 12 12 12 12 12 12
25 26 26 24 24 25 27 25 25 25 24 24 24 23 23 24 23 23 22 23 22 22 21 22 22 22 22 18 16 15 15 15 15 14 14 13 13 13 13 13 14 14
29 28 27 27 29 28 26 26 27 28 28 28 28 27 27 25 26 27 27 26 26 25 24 25 27 35 29 24 19 17 17 16 16 16 16 16 15 15 15 16 16 16
32 32 33 34 34 31 29 28 28 28 28 29 30 30 30 28 28 28 29 29 29 29 29 30 31 32 29 28 24 21 19 18 18 17 16 15 16 17 17 18 18 18
30 32 34 37 38 34 30 30 30 31 32 33 33 33 32 31 29 31 31 31 31 31 33 34 33 33 31 31 29 25 24 23 20 19 18 17 17 18 19 19 20 19
32 32 33 35 36 36 37 38 39 40 40 40 40 38 38 36 35 34 33 32 31 31 33 34 33 33 33 32 31 28 26 22 24 24 23 22 21 21 21 21 21 21
31 31 33 36 39 43 47 48 46 44 44 41 38 36 37 36 36 36 35 34 33 32 33 35 35 36 35 35 33 31 24 25 26 25 26 25 26 25 25 24 24 23
28 29 29 32 35 38 42 43 41 40 39 37 36 37 38 39 38 38 40 40 38 36 36 37 37 37 37 38 38 35 27 29 28 27 27 27 28 27 27 28 28 27
27 26 25 25 27 29 33 35 37 38 39 38 38 39 41 41 40 39 40 39 38 37 37 38 39 40 41 41 41 39 33 33 30 29 28 28 27 26 27 28 30 29
32 31 28 26 26 27 28 30 31 33 36 38 38 40 40 40 40 41 42 40 40 41 43 42 41 42 43 43 44 42 37 36 33 31 30 30 27 27 27 27 28 30
nan 33 32 32 30 30 30 30 28 30 33 34 34 35 38 40 40 41 42 41 40 40 41 42 44 44 44 45 46 47 43 37 38 38 37 35 33 31 29 28 30 30
Wind_Direction
156 171 158 170 173 169 173 174 176 176 175 172 171 176 175 177 173 169 168 170 163 153 155 159 163 163 168 171 173 178 185 187 185 197 194 189 187 187 190 196 195 199
156 166 172 176 186 186 180 170 176 174 188 190 185 190 191 194 191 180 180 178 175 163 166 172 178 177 176 184 191 192 198 198 190 204 202 196 190 193 191 191 192 198
167 172 171 166 168 166 157 176 178 179 187 196 204 203 206 210 205 208 201 191 188 184 193 192 200 201 202 204 205 205 209 213 203 204 208 199 198 201 196 198 199 202
178 174 173 163 165 178 188 194 197 198 199 219 214 213 212 213 220 228 223 218 202 202 201 211 215 218 224 223 222 217 218 218 217 214 209 209 207 202 203 209 207 205
190 188 185 178 179 190 200 195 190 202 202 212 220 229 227 224 225 229 231 227 220 216 224 223 225 222 229 231 233 225 226 223 231 230 220 210 214 217 211 218 215 204
207 205 204 199 200 202 196 195 196 196 202 217 222 229 228 234 225 229 230 225 224 219 220 228 232 231 231 233 234 227 224 225 232 233 220 210 207 220 220 224 220 216
221 216 214 211 210 214 198 200 204 202 205 209 225 227 233 238 239 234 231 225 217 218 214 224 230 231 233 233 235 234 232 227 226 234 223 214 217 212 218 227 227 222
222 222 219 218 220 224 211 211 211 212 214 220 221 227 230 233 240 241 241 237 228 227 223 223 234 243 241 244 244 244 241 248 257 257 244 231 223 218 223 229 226 224
226 225 220 217 216 219 216 214 216 215 223 220 217 225 232 227 234 239 249 251 245 241 241 238 243 245 250 256 256 260 258 250 252 262 262 253 247 239 233 235 228 226
230 226 223 216 210 211 210 211 211 214 224 221 218 221 231 232 231 236 244 251 251 255 257 258 263 263 264 268 271 269 266 269 268 269 266 263 257 245 242 245 238 230
224 227 228 222 214 212 212 213 213 214 221 220 217 220 225 230 236 238 240 244 243 249 255 260 264 267 269 268 269 268 267 263 262 268 268 267 260 255 253 250 246 240
223 223 227 230 226 221 219 220 221 220 222 226 222 220 222 222 228 231 233 234 231 230 233 236 242 250 255 255 258 264 267 262 262 263 262 261 258 258 257 256 252 250
225 223 223 226 233 231 228 229 228 227 228 228 229 225 222 219 223 226 230 226 226 224 222 224 227 232 239 242 245 251 257 260 256 257 258 258 258 255 254 256 257 255
230 227 224 223 227 232 233 232 231 231 231 230 232 232 228 225 223 227 230 230 226 225 226 223 225 227 233 237 240 244 250 255 257 255 251 252 252 255 255 255 257 257
233 231 229 228 227 231 232 233 235 235 234 234 235 234 235 236 234 232 234 234 233 231 230 230 229 231 233 236 239 245 250 250 255 257 255 250 248 246 250 254 255 254
240 238 235 232 231 232 233 235 235 237 238 239 240 240 241 241 241 241 240 241 240 239 237 236 237 237 243 249 244 239 242 246 249 253 252 250 247 243 242 245 246 245
241 240 239 237 235 233 235 236 238 239 241 242 242 241 241 243 243 245 245 245 245 243 243 243 242 244 249 255 259 256 249 248 250 253 256 258 256 254 248 244 242 242
243 242 237 234 233 231 233 237 239 241 242 244 245 245 242 242 244 244 243 243 244 245 245 244 245 236 235 244 252 260 263 254 252 251 255 259 260 259 257 254 251 249
241 243 241 237 233 231 233 238 242 243 245 247 248 245 242 242 243 243 244 243 243 245 246 247 246 236 239 242 252 258 264 262 254 253 253 256 259 262 262 261 260 258
247 247 248 245 242 237 233 239 243 245 247 248 247 247 244 243 241 241 241 242 243 246 247 244 242 234 235 240 243 246 258 264 258 258 257 253 255 258 261 264 265 265
253 252 251 248 244 244 240 238 237 237 239 239 238 240 245 241 239 240 240 241 243 247 249 246 243 236 240 239 240 240 252 257 254 258 259 258 258 259 262 264 267 269
248 252 255 250 245 239 236 236 233 231 233 237 243 242 241 243 241 241 242 243 244 246 248 247 244 237 238 241 243 243 245 253 254 254 256 256 259 260 261 264 267 268
244 250 252 251 247 245 241 237 236 237 239 240 241 242 243 244 245 243 242 243 244 245 246 245 244 238 238 240 242 241 247 253 254 255 256 256 256 257 260 262 262 263
249 249 247 247 249 251 251 245 243 243 244 243 242 242 242 244 246 245 243 243 245 247 250 251 248 243 240 240 239 239 245 254 254 254 255 255 255 253 253 256 258 259
249 251 251 248 252 255 256 254 252 249 246 244 243 241 241 242 244 244 243 239 241 249 251 251 250 247 242 240 238 235 242 254 253 253 252 251 249 251 250 249 253 257
nan 251 252 252 251 249 250 252 254 251 246 245 243 241 240 239 242 244 245 245 246 249 253 252 249 247 243 241 238 236 235 249 255 255 251 248 246 244 245 247 246 252